Flag for Canada Weather past 2 weeks in Markham, Ontario, Canada

Now
57 °F

Passing clouds.


Feels Like: 55 °F
Forecast: 37 / 55 °F
Wind: 12 mph from Northwest

Location: Toronto Buttonville

Current Time: Apr 18, 2015 at 8:26:29 PM

Latest Report: Apr 18, 2015 at 7:00 PM


Visibility: 15 mi

Pressure: 30.16 "Hg

Humidity: 39%

Dew point: 32 °F

Location of MarkhamLocation

Historic Weather in Markham — Graph

°F

Markham temperature yesterday

Maximum temperature yesterday: 70 °F (at 3:00 PM)
Minimum temperature yesterday: 48 °F (at 2:00 AM)
Average temperature yesterday: 57 °F

Past Weeks' High & Low Weather Summary

 TemperatureHumidityPressure
High73 °F (Apr 13, 4:00 PM)100% (Apr 3, 8:00 PM)30.42 "Hg (Apr 3, 8:00 PM)
Low27 °F (Apr 5, 4:00 AM)20% (Apr 14, 4:00 PM)29.41 "Hg (Apr 10, 11:00 AM)
Average45 °F64%30.11 "Hg
* Reported Apr 3 7:00 PM — Apr 18 7:00 PM, Markham, Weather by CustomWeather, © 2015

Note: Actual official high and low records may vary slightly from our data, if they occured in-between our weather recording intervals... More about our weather records

Advertising

Markham weather history for previous 24 hours

 ConditionsComfort  
Time TempWeatherWind HumidityBarometerVisibility
7:00 PM
Sat, Apr 18
57 °FPassing clouds.12 mph39%30.16 "Hg15 mi
6:00 PM61 °FPassing clouds.10 mph36%30.13 "Hg15 mi
5:00 PM63 °FPassing clouds.13 mph30%30.11 "Hg15 mi
4:00 PM63 °FPassing clouds.16 mph30%30.08 "Hg15 mi
3:00 PM63 °FPassing clouds.14 mph30%30.07 "Hg15 mi
2:00 PM61 °FPassing clouds.15 mph39%30.06 "Hg15 mi
1:00 PM61 °FPassing clouds.20 mph36%30.04 "Hg15 mi
12:00 PM61 °FSunny.16 mph36%30.03 "Hg15 mi
11:00 AM63 °FSunny.18 mph42%30.01 "Hg15 mi
10:00 AM64 °FPassing clouds.23 mph43%29.96 "Hg15 mi
9:00 AM57 °FPassing clouds.6 mph63%29.96 "Hg15 mi
8:00 AM48 °FScattered clouds.No wind76%29.96 "Hg15 mi
7:00 AM45 °FPassing clouds.3 mph81%29.97 "Hg15 mi
6:00 AM41 °FPassing clouds.No wind87%29.95 "Hg15 mi
5:00 AM41 °FClear.No wind87%29.95 "Hg15 mi
4:00 AM43 °FClear.No wind87%29.96 "Hg15 mi
3:00 AM45 °FClear.No wind81%29.97 "Hg15 mi
2:00 AM46 °FClear.No wind76%29.99 "Hg15 mi
1:00 AM46 °FClear.No wind76%29.99 "Hg15 mi
12:00 AM48 °FClear.No wind71%30.00 "Hg15 mi
11:00 PM
Fri, Apr 17
50 °FClear.3 mph71%30.01 "Hg15 mi
10:00 PM54 °FClear.3 mph58%30.01 "Hg15 mi
9:00 PM59 °FSunny.5 mph48%30.00 "Hg15 mi
8:00 PM63 °FPassing clouds.8 mph42%29.98 "Hg15 mi
Weather by CustomWeather, © 2015

See weather overviewHow to use our weather pages